Time,TemperatureF,DewpointF,PressureIn,WindDirection,WindDirectionDegrees,WindSpeedMPH,WindSpeedGustMPH,Humidity,HourlyPrecipIn,Conditions,Clouds,dailyrainin,SoftwareType,DateUTC
2013-03-10 03:42:00,24.0,24.0,-100.00,South,175,2.0,5.0,99,-99.99,,,-99.99,,2013-03-10 07:42:00,
2013-03-10 03:52:00,24.0,24.0,-100.00,WNW,300,0.0,2.0,99,-99.99,,,-99.99,,2013-03-10 07:52:00,
2013-03-10 04:02:00,24.0,23.0,-100.00,South,185,0.0,2.0,99,-99.99,,,-99.99,,2013-03-10 08:02:00,
2013-03-10 04:12:00,23.0,23.0,-100.00,WNW,285,1.0,1.0,99,-99.99,,,-99.99,,2013-03-10 08:12:00,
2013-03-10 04:21:00,23.0,23.0,-100.00,SSE,160,0.0,2.0,99,-99.99,,,-99.99,,2013-03-10 08:21:00,
2013-03-10 04:32:00,23.0,23.0,-100.00,South,170,1.0,2.0,99,-99.99,,,-99.99,,2013-03-10 08:32:00,
2013-03-10 04:42:00,23.0,23.0,-100.00,NW,315,1.0,2.0,99,-99.99,,,-99.99,,2013-03-10 08:42:00,
2013-03-10 04:51:00,23.0,23.0,-100.00,SSE,165,0.0,3.0,99,-99.99,,,-99.99,,2013-03-10 08:51:00,
2013-03-10 05:02:00,23.0,22.0,-100.00,SSE,150,0.0,1.0,99,-99.99,,,-99.99,,2013-03-10 09:02:00,
2013-03-10 05:10:00,22.0,21.0,-100.00,West,275,2.0,2.0,99,-99.99,,,-99.99,,2013-03-10 09:10:00,
2013-03-10 05:11:00,22.0,22.0,-100.00,SE,145,0.0,2.0,99,-99.99,,,-99.99,,2013-03-10 09:11:00,
2013-03-10 05:21:00,22.0,22.0,-100.00,SSE,150,0.0,5.0,99,-99.99,,,-99.99,,2013-03-10 09:21:00,
2013-03-10 05:32:00,22.0,22.0,-100.00,WSW,240,0.0,2.0,99,-99.99,,,-99.99,,2013-03-10 09:32:00,
2013-03-10 05:42:00,22.0,22.0,-100.00,South,180,1.0,2.0,99,-99.99,,,-99.99,,2013-03-10 09:42:00,
2013-03-10 05:51:00,22.0,21.0,-100.00,West,275,2.0,2.0,99,-99.99,,,-99.99,,2013-03-10 09:51:00,
2013-03-10 06:02:00,22.0,21.0,-100.00,West,275,2.0,2.0,99,-99.99,,,-99.99,,2013-03-10 10:02:00,
2013-03-10 07:12:00,21.0,21.0,-100.00,WNW,290,0.0,2.0,99,-99.99,,,-99.99,,2013-03-10 11:12:00,
2013-03-10 07:21:00,21.0,21.0,-100.00,South,175,1.0,2.0,99,-99.99,,,-99.99,,2013-03-10 11:21:00,
2013-03-10 07:32:00,21.0,21.0,-100.00,South,175,1.0,2.0,99,-99.99,,,-99.99,,2013-03-10 11:32:00,
2013-03-10 07:42:00,21.0,21.0,-100.00,South,175,1.0,2.0,99,-99.99,,,-99.99,,2013-03-10 11:42:00,
2013-03-10 07:52:00,21.0,21.0,-100.00,WNW,290,2.0,3.0,99,-99.99,,,-99.99,,2013-03-10 11:52:00,
2013-03-10 08:02:00,21.0,21.0,-100.00,WNW,285,2.0,3.0,99,-99.99,,,-99.99,,2013-03-10 12:02:00,
2013-03-10 08:11:00,22.0,21.0,-100.00,West,265,1.0,5.0,99,-99.99,,,-99.99,,2013-03-10 12:11:00,
2013-03-10 08:21:00,22.0,22.0,-100.00,West,275,1.0,3.0,99,-99.99,,,-99.99,,2013-03-10 12:21:00,
2013-03-10 08:32:00,22.0,22.0,-100.00,WNW,285,1.0,3.0,99,-99.99,,,-99.99,,2013-03-10 12:32:00,
2013-03-10 08:42:00,23.0,23.0,-100.00,SSE,160,2.0,3.0,99,-99.99,,,-99.99,,2013-03-10 12:42:00,
2013-03-10 08:51:00,23.0,23.0,-100.00,SE,135,1.0,5.0,99,-99.99,,,-99.99,,2013-03-10 12:51:00,
2013-03-10 09:01:00,24.0,24.0,-100.00,South,170,2.0,3.0,99,-99.99,,,-99.99,,2013-03-10 13:01:00,
2013-03-10 09:11:00,26.0,26.0,-100.00,West,260,1.0,3.0,99,-99.99,,,-99.99,,2013-03-10 13:11:00,
2013-03-10 09:21:00,27.0,27.0,-100.00,SE,130,1.0,5.0,99,-99.99,,,-99.99,,2013-03-10 13:21:00,
2013-03-10 09:32:00,29.0,29.0,-100.00,East,95,1.0,2.0,99,-99.99,,,-99.99,,2013-03-10 13:32:00,
2013-03-10 09:42:00,31.0,30.0,-100.00,ENE,75,0.0,2.0,99,-99.99,,,-99.99,,2013-03-10 13:42:00,
2013-03-10 09:52:00,31.0,31.0,-100.00,NNE,15,1.0,3.0,99,-99.99,,,-99.99,,2013-03-10 13:52:00,
2013-03-10 10:02:00,32.0,32.0,-100.00,NW,310,2.0,3.0,99,-99.99,,,-99.99,,2013-03-10 14:02:00,
2013-03-10 10:11:00,33.0,32.0,-100.00,West,270,1.0,3.0,99,-99.99,,,-99.99,,2013-03-10 14:11:00,
2013-03-10 10:22:00,33.0,32.0,-100.00,West,280,1.0,3.0,99,-99.99,,,-99.99,,2013-03-10 14:22:00,
2013-03-10 10:32:00,32.0,32.0,-100.00,East,95,1.0,3.0,99,-99.99,,,-99.99,,2013-03-10 14:32:00,
2013-03-10 10:42:00,32.0,32.0,-100.00,SE,130,0.0,5.0,99,-99.99,,,-99.99,,2013-03-10 14:42:00,
2013-03-10 10:51:00,35.0,33.0,-100.00,ESE,105,1.0,2.0,95,-99.99,,,-99.99,,2013-03-10 14:51:00,
2013-03-10 11:01:00,35.0,33.0,-100.00,ENE,60,1.0,3.0,91,-99.99,,,-99.99,,2013-03-10 15:01:00,
2013-03-10 11:10:00,37.0,32.0,-100.00,ENE,70,3.0,9.0,81,-99.99,,,-99.99,,2013-03-10 15:10:00,
2013-03-10 11:11:00,36.0,32.0,-100.00,NE,35,2.0,5.0,87,-99.99,,,-99.99,,2013-03-10 15:11:00,
2013-03-10 11:21:00,37.0,32.0,-100.00,East,80,2.0,6.0,84,-99.99,,,-99.99,,2013-03-10 15:21:00,
2013-03-10 11:32:00,37.0,32.0,-100.00,East,85,3.0,6.0,81,-99.99,,,-99.99,,2013-03-10 15:32:00,
2013-03-10 11:42:00,38.0,32.0,-100.00,NE,45,3.0,7.0,79,-99.99,,,-99.99,,2013-03-10 15:42:00,
2013-03-10 11:52:00,37.0,32.0,-100.00,ENE,70,3.0,9.0,81,-99.99,,,-99.99,,2013-03-10 15:52:00,
2013-03-10 12:02:00,37.0,32.0,-100.00,ENE,70,3.0,9.0,81,-99.99,,,-99.99,,2013-03-10 16:02:00,
2013-03-10 13:52:00,43.0,30.0,-100.00,NNE,20,3.0,6.0,59,-99.99,,,-99.99,,2013-03-10 17:52:00,
2013-03-10 14:01:00,43.0,30.0,-100.00,North,5,2.0,9.0,60,-99.99,,,-99.99,,2013-03-10 18:01:00,
2013-03-10 14:12:00,43.0,28.0,-100.00,East,95,7.0,9.0,56,-99.99,,,-99.99,,2013-03-10 18:12:00,
2013-03-10 14:22:00,44.0,29.0,-100.00,East,95,2.0,10.0,56,-99.99,,,-99.99,,2013-03-10 18:22:00,
2013-03-10 14:32:00,44.0,29.0,-100.00,East,95,2.0,10.0,56,-99.99,,,-99.99,,2013-03-10 18:32:00,
2013-03-10 14:42:00,45.0,28.0,-100.00,ENE,60,2.0,8.0,52,-99.99,,,-99.99,,2013-03-10 18:42:00,
2013-03-10 14:52:00,45.0,28.0,-100.00,ENE,60,2.0,8.0,52,-99.99,,,-99.99,,2013-03-10 18:52:00,
2013-03-10 15:02:00,44.0,28.0,-100.00,NE,35,2.0,8.0,54,-99.99,,,-99.99,,2013-03-10 19:02:00,
2013-03-10 15:11:00,44.0,29.0,-100.00,East,95,5.0,12.0,55,-99.99,,,-99.99,,2013-03-10 19:11:00,
2013-03-10 15:22:00,45.0,28.0,-100.00,NE,45,2.0,10.0,52,-99.99,,,-99.99,,2013-03-10 19:22:00,
2013-03-10 15:32:00,45.0,28.0,-100.00,ENE,60,5.0,8.0,52,-99.99,,,-99.99,,2013-03-10 19:32:00,
2013-03-10 15:42:00,45.0,28.0,-100.00,ENE,60,3.0,10.0,50,-99.99,,,-99.99,,2013-03-10 19:42:00,
2013-03-10 15:52:00,44.0,27.0,-100.00,ENE,75,7.0,9.0,52,-99.99,,,-99.99,,2013-03-10 19:52:00,
2013-03-10 16:02:00,45.0,28.0,-100.00,East,95,2.0,8.0,51,-99.99,,,-99.99,,2013-03-10 20:02:00,
2013-03-10 16:13:00,45.0,27.0,-100.00,ESE,115,3.0,7.0,49,-99.99,,,-99.99,,2013-03-10 20:13:00,
2013-03-10 16:22:00,45.0,28.0,-100.00,NNE,25,2.0,7.0,50,-99.99,,,-99.99,,2013-03-10 20:22:00,
2013-03-10 16:32:00,46.0,27.0,-100.00,ENE,60,5.0,6.0,47,-99.99,,,-99.99,,2013-03-10 20:32:00,
2013-03-10 16:43:00,46.0,27.0,-100.00,East,85,3.0,12.0,48,-99.99,,,-99.99,,2013-03-10 20:43:00,
2013-03-10 16:52:00,46.0,28.0,-100.00,South,180,3.0,10.0,50,-99.99,,,-99.99,,2013-03-10 20:52:00,
2013-03-10 17:02:00,45.0,27.0,-100.00,East,90,3.0,8.0,49,-99.99,,,-99.99,,2013-03-10 21:02:00,
2013-03-10 17:12:00,45.0,28.0,-100.00,South,175,6.0,9.0,51,-99.99,,,-99.99,,2013-03-10 21:12:00,
2013-03-10 17:23:00,44.0,27.0,-100.00,South,175,6.0,8.0,51,-99.99,,,-99.99,,2013-03-10 21:23:00,
2013-03-10 17:30:00,43.0,30.0,-100.00,South,180,5.0,10.0,61,-99.99,,,-99.99,,2013-03-10 21:30:00,
2013-03-10 17:32:00,45.0,28.0,-100.00,SSE,155,5.0,10.0,51,-99.99,,,-99.99,,2013-03-10 21:32:00,
2013-03-10 17:42:00,44.0,29.0,-100.00,South,190,9.0,14.0,56,-99.99,,,-99.99,,2013-03-10 21:42:00,
2013-03-10 17:52:00,43.0,30.0,-100.00,South,185,8.0,15.0,59,-99.99,,,-99.99,,2013-03-10 21:52:00,
2013-03-10 18:03:00,43.0,30.0,-100.00,South,185,8.0,15.0,59,-99.99,,,-99.99,,2013-03-10 22:03:00,
2013-03-10 18:12:00,43.0,30.0,-100.00,South,180,5.0,10.0,61,-99.99,,,-99.99,,2013-03-10 22:12:00,
2013-03-10 18:22:00,43.0,30.0,-100.00,South,180,5.0,10.0,61,-99.99,,,-99.99,,2013-03-10 22:22:00,
2013-03-10 19:12:00,39.0,32.0,-100.00,SE,130,3.0,8.0,78,-99.99,,,-99.99,,2013-03-10 23:12:00,
2013-03-10 19:23:00,38.0,33.0,-100.00,SE,135,3.0,8.0,80,-99.99,,,-99.99,,2013-03-10 23:23:00,
2013-03-10 19:52:00,37.0,33.0,-100.00,East,100,1.0,5.0,87,-99.99,,,-99.99,,2013-03-10 23:52:00,
2013-03-10 20:03:00,36.0,34.0,-100.00,ENE,75,2.0,6.0,89,-99.99,,,-99.99,,2013-03-11 00:03:00,
2013-03-10 20:13:00,36.0,33.0,-100.00,East,80,2.0,8.0,89,-99.99,,,-99.99,,2013-03-11 00:13:00,
2013-03-10 20:23:00,36.0,33.0,-100.00,ESE,105,1.0,5.0,91,-99.99,,,-99.99,,2013-03-11 00:23:00,
2013-03-10 20:43:00,35.0,34.0,-100.00,East,80,1.0,5.0,95,-99.99,,,-99.99,,2013-03-11 00:43:00,
2013-03-10 20:52:00,35.0,34.0,-100.00,South,185,1.0,5.0,95,-99.99,,,-99.99,,2013-03-11 00:52:00,
2013-03-10 21:03:00,35.0,34.0,-100.00,ESE,115,1.0,5.0,97,-99.99,,,-99.99,,2013-03-11 01:03:00,
2013-03-10 21:13:00,35.0,34.0,-100.00,ENE,70,2.0,3.0,99,-99.99,,,-99.99,,2013-03-11 01:13:00,
2013-03-10 21:23:00,35.0,34.0,-100.00,NNE,30,1.0,3.0,99,-99.99,,,-99.99,,2013-03-11 01:23:00,
2013-03-10 21:32:00,35.0,34.0,-100.00,ENE,70,1.0,2.0,99,-99.99,,,-99.99,,2013-03-11 01:32:00,
2013-03-10 21:43:00,35.0,34.0,-100.00,East,95,1.0,5.0,99,-99.99,,,-99.99,,2013-03-11 01:43:00,
2013-03-10 21:53:00,35.0,34.0,-100.00,SE,135,2.0,5.0,99,-99.99,,,-99.99,,2013-03-11 01:53:00,
2013-03-10 22:03:00,35.0,34.0,-100.00,East,100,3.0,6.0,99,-99.99,,,-99.99,,2013-03-11 02:03:00,
2013-03-10 22:13:00,35.0,34.0,-100.00,East,95,1.0,6.0,99,-99.99,,,-99.99,,2013-03-11 02:13:00,
2013-03-10 22:23:00,35.0,34.0,-100.00,South,175,1.0,5.0,99,-99.99,,,-99.99,,2013-03-11 02:23:00,
2013-03-10 22:32:00,35.0,34.0,-100.00,East,95,1.0,3.0,99,-99.99,,,-99.99,,2013-03-11 02:32:00,
2013-03-10 22:42:00,35.0,35.0,-100.00,South,180,2.0,6.0,99,-99.99,,,-99.99,,2013-03-11 02:42:00,
2013-03-10 22:52:00,35.0,35.0,-100.00,South,180,2.0,6.0,99,-99.99,,,-99.99,,2013-03-11 02:52:00,
2013-03-10 23:02:00,35.0,35.0,-100.00,SE,125,2.0,7.0,99,-99.99,,,-99.99,,2013-03-11 03:02:00,
2013-03-10 23:12:00,35.0,35.0,-100.00,SE,125,2.0,7.0,99,-99.99,,,-99.99,,2013-03-11 03:12:00,
2013-03-10 23:22:00,35.0,35.0,-100.00,SE,130,1.0,7.0,99,-99.99,,,-99.99,,2013-03-11 03:22:00,
2013-03-10 23:30:00,35.0,35.0,-100.00,East,95,2.0,6.0,99,-99.99,,,-99.99,,2013-03-11 03:30:00,
2013-03-10 23:32:00,35.0,35.0,-100.00,South,190,3.0,5.0,99,-99.99,,,-99.99,,2013-03-11 03:32:00,
2013-03-10 23:42:00,36.0,35.0,-100.00,SSW,195,2.0,7.0,99,-99.99,,,-99.99,,2013-03-11 03:42:00,
2013-03-10 23:52:00,35.0,35.0,-100.00,SSW,205,2.0,5.0,99,-99.99,,,-99.99,,2013-03-11 03:52:00,